Back to catalog

CZ-6A DEB

AliveSSO
NORAD 54528·DEBRIS·🇨🇳 China

Launched Nov 11, 2022 from Taiyuan Satellite Launch Center

Loading…

Next Passes (next 24 hours)

TLE

FreshSource: Space-Track

Epoch: Sep 14, 2026, 01:02 UTC

1 54528U 22151KG  26257.04343188  .00001660  00000-0  42940-3 0  9993
2 54528  98.5295 290.7374 0091710  51.4598 309.4770 14.48774018201890

Track CZ-6A DEB in real time with AllMySat

Download on the App Store